Wheaton NDB, MN

11:48 AM CDT on August 21, 2017 (GMT -0500)
Wheaton Municipal

Weather History for KETH - May, 2013

Change the Weather History Date:

Wednesday, May 15, 2013

  Actual Average Record
Temperature  
Mean Temperature 64 °F -  
Max Temperature 80 °F 72 °F 93 °F (1991)
Min Temperature 48 °F 45 °F 29 °F (1959)
Degree Days  
Heating Degree Days 1    
Growing Degree Days 14 (Base 50)    
Moisture  
Dew Point 44 °F    
Average Humidity 47    
Maximum Humidity 76    
Minimum Humidity 24    
Precipitation  
Precipitation 0.00 in - - ()
Sea Level Pressure  
Sea Level Pressure 29.86 in    
Wind  
Wind Speed 7 mph (WSW)    
Max Wind Speed 18 mph    
Max Gust Speed 24 mph    
Visibility 10 miles    
Events      
Averages and records for this station are not official NWS values.
T = Trace of Precipitation, MM = Missing Value Source: NWS Daily Summary

Daily Weather History Graph

Daily Weather History Graph

Search for Another Location

Airport or City:

Trip Planner

Search our weather history database for the weather conditions in past years. The results will help you decide how hot, cold, wet, or windy it might be!

Date:

Astronomy

May. 15, 2013 Rise Set
Actual Time 5:54 AM CDT 8:51 PM CDT
Civil Twilight 5:19 AM CDT 9:26 PM CDT
Nautical Twilight 4:34 AM CDT 10:11 PM CDT
Astronomical Twilight 3:41 AM CDT 11:05 PM CDT
Moon 10:34 AM CDT (5/15) 12:36 AM CDT (5/15)
Length of Visible Light 16h 06m
Length of Day
14h 56m
Waxing Crescent, 27% of the Moon is Illuminated
May 15
Waxing Crescent
May 17
First Quarter
May 24
Full
May 31
Last Quarter
Jun 8
New

Hourly Weather History & Observations

Time (CDT) Temp. Dew Point Humidity Pressure Visibility Wind Dir Wind Speed Gust Speed Precip Events Conditions
12:14 AM 57.2 °F 44.6 °F 63% 29.83 in 10.0 mi WNW 5.8 mph - N/A   Clear
12:34 AM 57.2 °F 44.6 °F 63% 29.83 in 10.0 mi NW 4.6 mph - N/A   Clear
12:54 AM 55.4 °F 44.6 °F 67% 29.84 in 10.0 mi WNW 3.5 mph - N/A   Clear
1:34 AM 55.4 °F 44.6 °F 67% 29.84 in 10.0 mi Calm Calm - N/A   Clear
1:54 AM 55.4 °F 44.6 °F 67% 29.84 in 10.0 mi Calm Calm - N/A   Clear
2:15 AM 53.6 °F 44.6 °F 72% 29.86 in 10.0 mi WSW 4.6 mph - N/A   Clear
2:35 AM 51.8 °F 42.8 °F 71% 29.86 in 10.0 mi WSW 4.6 mph - N/A   Clear
2:55 AM 53.6 °F 44.6 °F 72% 29.86 in 10.0 mi WSW 3.5 mph - N/A   Clear
3:15 AM 51.8 °F 44.6 °F 76% 29.87 in 10.0 mi SW 5.8 mph - N/A   Clear
3:34 AM 51.8 °F 44.6 °F 76% 29.86 in 10.0 mi SSW 5.8 mph - N/A   Clear
3:54 AM 51.8 °F 44.6 °F 76% 29.85 in 10.0 mi SW 3.5 mph - N/A   Clear
4:14 AM 50.0 °F 42.8 °F 76% 29.86 in 10.0 mi SW 4.6 mph - N/A   Clear
4:34 AM 48.2 °F 41.0 °F 76% 29.88 in 10.0 mi SW 4.6 mph - N/A   Clear
4:54 AM 48.2 °F 41.0 °F 76% 29.88 in 10.0 mi SSW 5.8 mph - N/A   Clear
5:15 AM 48.2 °F 41.0 °F 76% 29.89 in 10.0 mi SW 4.6 mph - N/A   Clear
5:34 AM 50.0 °F 41.0 °F 71% 29.91 in 10.0 mi SW 5.8 mph - N/A   Clear
5:54 AM 48.2 °F 41.0 °F 76% 29.92 in 10.0 mi SW 5.8 mph - N/A   Clear
6:14 AM 51.8 °F 42.8 °F 71% 29.92 in 10.0 mi SSW 5.8 mph - N/A   Clear
6:34 AM 51.8 °F 42.8 °F 71% 29.91 in 10.0 mi South 3.5 mph - N/A   Clear
6:55 AM 53.6 °F 44.6 °F 72% 29.90 in 10.0 mi South 4.6 mph - N/A   Clear
7:14 AM 55.4 °F 44.6 °F 67% 29.90 in 10.0 mi East 3.5 mph - N/A   Clear
7:35 AM 60.8 °F 46.4 °F 59% 29.91 in 10.0 mi SSW 3.5 mph - N/A   Clear
7:54 AM 60.8 °F 46.4 °F 59% 29.91 in 10.0 mi SSW 5.8 mph - N/A   Clear
8:15 AM 62.6 °F 46.4 °F 55% 29.91 in 10.0 mi SW 5.8 mph - N/A   Clear
8:34 AM 66.2 °F 46.4 °F 49% 29.90 in 10.0 mi SW 6.9 mph - N/A   Clear
8:54 AM 66.2 °F 46.4 °F 49% 29.90 in 10.0 mi WSW 8.1 mph - N/A   Clear
9:15 AM 69.8 °F 46.4 °F 43% 29.91 in 10.0 mi West 6.9 mph - N/A   Clear
9:35 AM 73.4 °F 46.4 °F 38% 29.91 in 10.0 mi West 6.9 mph - N/A   Clear
9:55 AM 73.4 °F 44.6 °F 36% 29.90 in 10.0 mi WNW 13.8 mph 18.4 mph N/A   Clear
10:14 AM 75.2 °F 44.6 °F 34% 29.90 in 10.0 mi West 17.3 mph 20.7 mph N/A   Clear
10:35 AM 75.2 °F 46.4 °F 36% 29.90 in 10.0 mi WSW 9.2 mph 17.3 mph N/A   Clear
10:55 AM 75.2 °F 46.4 °F 36% 29.89 in 10.0 mi West 11.5 mph 20.7 mph N/A   Clear
11:14 AM 75.2 °F 44.6 °F 34% 29.90 in 10.0 mi West 12.7 mph 18.4 mph N/A   Clear
11:34 AM 75.2 °F 44.6 °F 34% 29.89 in 10.0 mi West 11.5 mph - N/A   Clear
11:55 AM 77.0 °F 44.6 °F 32% 29.89 in 10.0 mi West 10.4 mph 17.3 mph N/A   Clear
12:15 PM 77.0 °F 44.6 °F 32% 29.89 in 10.0 mi WSW 15.0 mph - N/A   Clear
12:54 PM 78.8 °F 44.6 °F 30% 29.88 in 10.0 mi West 12.7 mph 20.7 mph N/A   Clear
1:14 PM 77.0 °F 42.8 °F 29% 29.88 in 10.0 mi West 12.7 mph 20.7 mph N/A   Scattered Clouds
1:35 PM 78.8 °F 44.6 °F 30% 29.87 in 10.0 mi WNW 12.7 mph - N/A   Clear
1:55 PM 78.8 °F 44.6 °F 30% 29.87 in 10.0 mi West 9.2 mph 17.3 mph N/A   Clear
2:14 PM 78.8 °F 42.8 °F 28% 29.87 in 10.0 mi WSW 11.5 mph 19.6 mph N/A   Clear
2:34 PM 78.8 °F 42.8 °F 28% 29.86 in 10.0 mi WSW 10.4 mph 18.4 mph N/A   Scattered Clouds
2:55 PM 78.8 °F 44.6 °F 30% 29.86 in 10.0 mi WSW 11.5 mph - N/A   Scattered Clouds
3:15 PM 78.8 °F 44.6 °F 30% 29.85 in 10.0 mi WSW 15.0 mph 20.7 mph N/A   Clear
3:34 PM 78.8 °F 46.4 °F 32% 29.85 in 10.0 mi West 12.7 mph 19.6 mph N/A   Clear
3:54 PM 80.6 °F 46.4 °F 30% 29.84 in 10.0 mi WSW 16.1 mph 20.7 mph N/A   Clear
4:15 PM 78.8 °F 44.6 °F 30% 29.84 in 10.0 mi West 11.5 mph - N/A   Clear
4:35 PM 80.6 °F 44.6 °F 28% 29.83 in 10.0 mi SW 15.0 mph - N/A   Clear
4:54 PM 80.6 °F 44.6 °F 28% 29.83 in 10.0 mi SW 18.4 mph 23.0 mph N/A   Scattered Clouds
5:14 PM 80.6 °F 42.8 °F 26% 29.82 in 10.0 mi West 15.0 mph 24.2 mph N/A   Scattered Clouds
5:34 PM 80.6 °F 42.8 °F 26% 29.82 in 10.0 mi West 12.7 mph - N/A   Scattered Clouds
5:54 PM 80.6 °F 42.8 °F 26% 29.82 in 10.0 mi West 11.5 mph - N/A   Scattered Clouds
6:14 PM 80.6 °F 42.8 °F 26% 29.82 in 10.0 mi WNW 10.4 mph 16.1 mph N/A   Clear
6:34 PM 80.6 °F 41.0 °F 24% 29.81 in 10.0 mi West 10.4 mph 16.1 mph N/A   Scattered Clouds
6:54 PM 80.6 °F 42.8 °F 26% 29.81 in 10.0 mi West 10.4 mph - N/A   Scattered Clouds
7:14 PM 78.8 °F 42.8 °F 28% 29.81 in 10.0 mi WSW 12.7 mph 18.4 mph N/A   Scattered Clouds
7:34 PM 78.8 °F 42.8 °F 28% 29.81 in 10.0 mi WSW 12.7 mph 16.1 mph N/A   Clear
7:54 PM 77.0 °F 42.8 °F 29% 29.81 in 10.0 mi SW 11.5 mph - N/A   Clear
8:14 PM 73.4 °F 42.8 °F 33% 29.81 in 10.0 mi SW 9.2 mph - N/A   Clear
8:35 PM 71.6 °F 42.8 °F 35% 29.82 in 10.0 mi WSW 9.2 mph - N/A   Clear
8:54 PM 69.8 °F 42.8 °F 38% 29.82 in 10.0 mi WSW 8.1 mph - N/A   Clear
9:14 PM 68.0 °F 42.8 °F 40% 29.83 in 10.0 mi West 4.6 mph - N/A   Clear
9:34 PM 66.2 °F 41.0 °F 40% 29.83 in 10.0 mi WSW 10.4 mph - N/A   Clear
9:54 PM 66.2 °F 41.0 °F 40% 29.84 in 10.0 mi WSW 6.9 mph - N/A   Clear
10:14 PM 64.4 °F 39.2 °F 40% 29.85 in 10.0 mi SW 5.8 mph - N/A   Clear
10:34 PM 62.6 °F 41.0 °F 45% 29.85 in 10.0 mi SW 5.8 mph - N/A   Clear
10:54 PM 62.6 °F 42.8 °F 48% 29.86 in 10.0 mi WSW 5.8 mph - N/A   Clear
11:14 PM 60.8 °F 41.0 °F 48% 29.86 in 10.0 mi WSW 4.6 mph - N/A   Clear
11:35 PM 60.8 °F 41.0 °F 48% 29.87 in 10.0 mi WSW 6.9 mph - N/A   Clear
11:55 PM 60.8 °F 42.8 °F 52% 29.87 in 10.0 mi West 4.6 mph - N/A   Clear